Starlink 11144

operational
NORAD ID: 59955 Int'l Des: 2024-107 Owner: SPXS Country: US Constellation: starlink
LEOCIRCULAR

Über Starlink 11144

Beschreibung wird geladen...

Live-Position

3D-Globus wird geladen...

Nächste Überflüge

Höhenverlauf

Altitude vs Time

uPlot chart will show altitude changes over time

Zweizeiliger Elementsatz

1 59955U 24107L 25354.07110470 -.00000947 00000-0 -29519-5 0 9999
2 59955 53.1615 283.5631 0001560 111.3529 248.7656 15.69711536 89704
Epoch: 20. Dez. 2025 • Age: 24 hours

Aktueller Status

Höhe 379.2 km
Geschwindigkeit 7.68 km/s
Subsatellitenpunkt -53.24°S, 76.35°E
Startdatum 5. Juni 2024
Alter 1.5 years
Typ internet

Technische Details

Klassifizierung Payload
Masse 960.00 kg
Trockenmasse 910.00 kg
Gesamtmasse 960.00 kg
Länge 0.30 m
Durchmesser 4.10 m
Spannweite 29.00 m
Form Box + pan
Hersteller SPXS
Bus-Typ Starlink V2MD
Phasenstatus In Orbit
Besitzer/Staat SPXS/US

Große Konstellationen

Loading constellations...